Location: Boiro
(42.6475°N, 8.8834°W)
Time: 03:44:19
(UTC+01:00)

Explorer 11/Cluster Stage 4 - Pass Details

Date: 06 December 2021
Orbit: 467 x 1255 km, 28.8° (Epoch: 20 January)

Event Time Altitude Azimuth Distance (km) Brightness Sun altitude
Rises 02:07:50 0° 211° (SSW) 3,138 - -68.1°
Reaches altitude 10° 02:11:22 10° 186° (S) 2,395 - -67.8°
Maximum altitude 02:14:10 14° 156° (SSE) 2,270 - -67.5°
Drops below altitude 10° 02:17:14 10° 128° (SE) 2,679 - -67.2°
Sets 02:21:38 0° 105° (ESE) 3,818 - -66.8°
